Showing default

KUIPER-00432, 68937

Orbit data source: Space-Track

KUIPER-00432, 68937 is a payload satellite owned by Kuiper Systems (US) in LEO that was launched on Thu, 30 Apr 2026 UTC via an ARIANE 64 launch vehicle from the French Guiana (FRGUI). Payload-class satellites include a variety of spacecraft equipped with specific instruments for various scientific and technological missions. These include communications satellites like Starlink; space stations such as the ISS; scientific satellites like the Hubble; Earth observation satellites from companies like Planet Labs, Umbra, and HawkEye 360; GPS; miniature CubeSats for education and research; and military/defense satellites.

Loading next visibility...
Identifier
68937, 2026-098U
Orbit
LEO
Country
Flag of USUS
Related business
Manufacturer
Kuiper Systems
Mission
Operational spacecraft
Bus & Motor
KUIPER, Unknown motor
Mass
~490 kg wet, ~490 kg dry
Launch date (UTC)
2026-04-30 (1 month ago)
Launch vehicle
ARIANE 64
Launch site
French Guiana (FRGUI)
Object type
Payload
Rocket body
Debris
Shape & HBR
Unknown
Radar Cross Section
Large (>1 m²)

Expand to show TLE details & history
Last TLE update: 6 days ago

TLE from 6 days ago
0 KUIPER-00432
1 68937U 26098U   26155.12303560  .00022902  00000-0  76254-3 0  9999
2 68937  51.8756 131.1800 0012133  95.7387 264.4981 15.30967892  5335
Epoch: 2026-06-04T02:57Z
TLE epoch observation values (Epoch: 2026-06-04T02:57:10.275Z)
Latitude
-0.00002°
Longitude
-165.68465°
Altitude
474.491 km
Speed
7.629 km/s
True Right ascension
08h 44m 43s
True Declination
0° 00' 00"
Sunlit
Object was in daylight at epoch
Visualization orbit readout
Latitude
Unknown
Longitude
Unknown
Altitude
Unknown
Speed
Unknown
Apparent Right ascension
Unknown
Apparent Declination
Unknown
Sunlit
N/A
Visualization observer readout
Local Sidereal Time
14:07:50
Azimuth
Unknown
Elevation
Unknown
Doppler factor
Unknown
Orbital elements
Apogee altitude
481.701 km
Perigee altitude
465.076 km
Semi-major axis
6,851.526 km
Eccentricity
0.00121
Inclination
51.8756°
RAAN
131.18°
Arg. of periapsis
95.7387°
True anomaly
264.35973°
Mean anomaly
264.4981°
Eccentric anomaly
264.42891°
Mean motion
3.82703 °/min
Orbital period
94.07 mins
BSTAR
0.00076254
Loading maneuver chart data...
Computing Atmospheric mass density...
Loading historical data...
Loading historical data...
Loading historical data...
Loading historical data...
Loading historical data...
Loading historical data...
Loading historical data...

Documentation

Showing up to 5 results
|